    Observer details:
    160 Castelmartini.  Observers M. Jaeger, E. Prosperi, S. Prosperi, W. Vollmann.
        Measurer E. Prosperi.  0.35-m f/10 Schmidt-Cassegrain + CCD.
    203 GiaGa Observatory.  Observers S. Foglia, G. Galli.  Measurer G. Galli.
        0.28-m f/6.8 Schmidt-Cassegrain + CCD.
    204 Schiaparelli Observatory.  Observer L. Buzzi.  0.60-m f/4.64 reflector
        + CCD.
    587 Sormano.  Observers A. Fumagalli, F. Manca, P. Sicoli, A. Testa.  Measurer
        P. Sicoli.  0.5-m f/6.8 reflector + CCD.
    595 Farra d'Isonzo.  Observer E. Pettarin.  0.61-m f/4.0 reflector + CCD.
    691 Steward Observatory, Kitt Peak.  Observer A. F. Tubbiolo.  0.9-m f/3
        reflector + CCD.
    703 Catalina Sky Survey.  Observers B. M. Africano, G. J. Leonard.  Measurers
        B. M. Africano, E. J. Christensen, D. C. Fuls, A. R. Gibbs, A. D. Grauer,
        J. A. Johnson, R. A. Kowalski, S. M. Larson, G. J. Leonard, R. L. Seaman,
        F. C. Shelly.  0.68-m Schmidt + 10K CCD.
    734 Farpoint Observatory.  Observer G. Hug.  0.69-m reflector + CCD.
    G96 Mt. Lemmon Survey.  Observer R. A. Kowalski.  Measurers B. M. Africano,
        E. J. Christensen, D. C. Fuls, A. R. Gibbs, A. D. Grauer, J. A. Johnson,
        R. A. Kowalski, S. M. Larson, G. J. Leonard, R. L. Seaman, F. C. Shelly.
        1.5-m reflector + 10K CCD.
    H01 Magdalena Ridge Observatory, Socorro.  Observers W. H. Ryan, E. V. Ryan.
        Measurer W. H. Ryan.  2.4-m f/8.9 reflector + CCD.
    H21 Astronomical Research Observatory, Westfield.  Observer R. Holmes.
        Measurers S. Foglia, L. Buzzi, T. Linder, R. Holmes.  0.61-m f/4.5
        astrograph + CCD.
    I52 Steward Observatory, Mt. Lemmon Station.  Observers B. M. Africano,
        G. J. Leonard.  Measurers B. M. Africano, E. J. Christensen, D. C. Fuls,
        A. R. Gibbs, A. D. Grauer, J. A. Johnson, R. A. Kowalski, S. M. Larson,
        G. J. Leonard, R. L. Seaman, F. C. Shelly.  1.0-m reflector + CCD.
    K38 M57 Observatory, Saltrio.  Observer G. Baj.  0.30-m f/5.5 Ritchey-Chretien
        + CCD.
    K65 Cesena.  Observer V. Tinella.  0.40-m f/7 Schmidt-Cassegrain + CCD.
    K88 GINOP-KHK, Piszkesteto.  Observer K. Sarneczky.  0.60-m Schmidt + CCD.
    L01 Visnjan Observatory, Tican.  Observer K. Korlevic.  1.0-m f/2.9 reflector
        + CCD.
    P93 Space Tracking and Communications Center, JAXA.  Observers S. Urakawa,
        T. Nimura.  1.0-m f/3.0 reflector + CCD.
    U69 iTelescope SRO Observatory, Auberry.  Observer S. M. Tilley.  0.61-m f/6.5
        reflector + CCD.
    Z80 Northolt Branch Observatory.  Observer G. Wells.  Measurer D. Bamberger.
        0.25-m f/8 Ritchey-Chretien + CCD.
    
    Orbital elements:
    2018 HH2                                                 Earth MOID = 0.0620 AU
    Epoch 2018 Mar. 23.0 TT = JDT 2458200.5                 MPC
    M  13.39706              (2000.0)            P               Q
    n   0.70553024     Peri.  115.43576     -0.89620367     -0.38701664
    a   1.2496612      Node    42.74172     +0.19436240     -0.78196666
    e   0.2284366      Incl.   18.63602     +0.39880100     -0.48861668
    P   1.40           H   23.1           G   0.15           U   7
    Residuals in seconds of arc
    180423 703  0.2+  0.2+    180424 K88  0.6+  0.5+    180425 H21  0.0   0.0
    180423 703  1.4-  0.4-    180424 K88  0.4+  0.2+    180425 I52  0.5+  0.8-
    180423 703  1.2-  0.1+    180424 587  0.2+  0.1-    180425 I52  0.1+  0.6+
    180423 703  1.2-  0.9+    180424 587  0.2+  0.3-    180425 I52  0.2-  0.2+
    180423 H01  0.1+  0.1+    180424 587  0.2+  0.1-    180425 I52  0.3+  0.3+
    180423 H01  0.1+  0.1+    180424 160  0.7+  0.1-    180425 G96  0.2+  0.5+
    180423 H01  0.1+  0.0     180424 160  0.0   0.1-    180425 G96 (0.9-  1.6-)
    180423 H01  0.2+  0.2+    180424 160  0.1+  0.0     180425 G96 (2.2-  4.1-)
    180423 I52  0.5+  0.6+    180424 160  0.2-  0.2+    180425 P93  0.2+  0.4+
    180423 I52  1.2+  1.2-    180424 160  0.2+  0.3+    180425 P93  0.1+  0.9+
    180423 I52 (1.9+  0.1+)   180424 K38  0.8-  0.5-    180425 P93  0.2-  0.3+
    180423 I52  0.3+  0.2+    180424 204  0.1+  0.1+    180425 P93  0.3+  0.3+
    180423 I52  0.1+  0.1-    180424 L01  0.2-  0.3+    180425 K88  0.3-  0.3-
    180423 I52  0.1-  0.4+    180424 L01  0.0   0.1-    180425 K88  0.1+  0.6+
    180423 I52  0.1+  0.6+    180424 L01  0.2+  0.8-    180425 K88  0.6+  0.1-
    180424 I52  0.1+  0.3+    180424 204  0.2+  0.1+    180425 Z80  0.1+  0.2+
    180424 I52  0.2+  0.0     180424 K38  0.9-  0.3-    180426 Z80  0.4-  0.7-
    180424 I52  0.1+  0.0     180424 L01  0.3-  0.2-    180426 Z80  0.4-  0.8+
    180424 I52  0.2+  0.1-    180424 204  0.3+  0.0     180426 691  0.1-  0.4-
    180424 734  0.3-  0.4-    180424 K38  1.1-  0.6-    180426 691  0.2+  0.0
    180424 734  0.3-  0.6-    180424 K65  0.1+  0.2-    180426 691  0.4-  0.2+
    180424 734  0.0   0.2-    180424 K65  0.2+  0.1-    180426 I52  0.5+  0.1-
    180424 734  0.4-  0.9-    180424 595  0.3+  0.3-    180426 I52  0.4+  0.1+
    180424 U69  0.2-  0.3-    180424 595  0.3+  0.1-    180426 I52  0.1+  0.1-
    180424 U69  0.1-  0.1-    180424 K65  0.2+  0.1+    180426 I52  0.0   0.2-
    180424 U69  0.2-  0.0     180424 K65  0.3+  0.0     180426 703  0.5-  0.7-
    180424 I52  0.0   0.1+    180424 K65  0.2+  0.5-    180426 703  0.8-  0.1+
    180424 I52  0.0   0.0     180424 203  0.0   0.2+    180426 703  0.3-  0.2+
    180424 I52  0.0   0.1-    180425 203  0.2+  0.3+    180426 703  0.1-  0.1+
    180424 I52  0.0   0.0     180425 H21  0.0   0.0
    180424 K88  0.1+  0.1+    180425 H21  0.0   0.1+
    
    Ephemeris:
    2018 HH2                 a,e,i = 1.25, 0.23, 19                  q = 0.9642
    Date    TT    R. A. (2000) Decl.     Delta      r     Elong.  Phase     V
    2018 03 27    19 41 04.7 +66 25 50   0.1980  0.9829    80.0    88.5    22.7
    ...
    2018 04 11    18 04 57.6 +59 48 48   0.1232  1.0134    91.8    81.2    21.4
    ...
    2018 04 19    16 52 42.7 +47 37 22   0.08556 1.0343   108.3    67.2    20.2
    ...
    2018 04 25    15 53 02.0 +26 52 11   0.06593 1.0518   132.8    44.6    19.0
    2018 04 26    15 43 17.4 +22 07 44   0.06415 1.0548   138.1    39.5    18.8
    2018 04 27    15 33 43.1 +17 06 28   0.06296 1.0578   143.8    34.2    18.6
    ...
    2018 05 03    14 41 40.2 -13 06 03   0.06895 1.0768   177.5     2.3    17.7
    ...
    2018 05 11    13 51 01.7 -36 48 06   0.1030  1.1035   154.2    23.5    19.5
    ...
    2018 05 26    13 08 22.8 -50 15 38   0.1941  1.1563   134.0    39.0    21.4
    
    A. U. Tomatic                (C) Copyright 2018 MPC           M.P.E.C. 2018-H89
    

    Read MPEC 2018-H88 Read MPEC 2018-H90


    MPEC number:

    Enter an MPEC number in one of the following forms:

    • 1997-B01 (the full form)
    • J97B01 (the packed version of the full form)
    • B01 (the abbreviated form)